When you browse on this site, cookies collect data to enhance your experience and personalize the content and advertising you see.
Visit our Privacy Policy to learn more. By continuing to use the site, you agree to this use of cookies and data.
  • Em Portugal
  • Lista de países
  • Para 7 dias
  • Temperatura da água
  • Mapas de satélite
  • Mapa do tempo
  • Widgets de tempo
  • user-avatar
    Iniciar Sessão

    Previsão horária em Gogolow

    Hoje, 20 Março, Quarta-feira

    Tempo Temperatura Precipitação Vento Pressão Humidade
    00:00 +2°C° 0 mm 1 m/s 746 mmHg 75%
    01:00 +2°C° 0 mm 1 m/s 747 mmHg 75%
    02:00 +1°C° 0 mm 1 m/s 747 mmHg 76%
    03:00 +1°C° 0 mm 1 m/s 747 mmHg 77%
    04:00 +1°C° 0 mm 1 m/s 748 mmHg 78%
    05:00 +2°C° 0 mm 1 m/s 748 mmHg 76%
    06:00 +2°C° 0 mm 1 m/s 748 mmHg 74%
    07:00 +3°C° 0 mm 1 m/s 749 mmHg 68%
    08:00 +4°C° 0 mm 1 m/s 749 mmHg 64%
    09:00 +4°C° 0 mm 2 m/s 749 mmHg 59%
    10:00 +5°C° 0 mm 2 m/s 749 mmHg 55%
    11:00 +6°C° 0 mm 2 m/s 749 mmHg 51%
    12:00 +7°C° 0 mm 2 m/s 749 mmHg 48%
    13:00 +8°C° 0 mm 2 m/s 749 mmHg 45%
    14:00 +8°C° 0 mm 2 m/s 749 mmHg 44%
    15:00 +8°C° 0 mm 2 m/s 749 mmHg 44%
    16:00 +8°C° 0 mm 2 m/s 749 mmHg 44%
    17:00 +7°C° 0 mm 1 m/s 749 mmHg 48%
    18:00 +6°C° 0 mm 1 m/s 749 mmHg 52%
    19:00 +4°C° 0 mm 0 m/s 750 mmHg 56%
    20:00 +4°C° 0 mm 1 m/s 750 mmHg 58%
    21:00 +4°C° 0 mm 1 m/s 750 mmHg 59%
    22:00 +4°C° 0 mm 1 m/s 750 mmHg 60%
    23:00 +3°C° 0 mm 1 m/s 751 mmHg 62%

    Amanhã, 21 Março, Quinta-feira

    Tempo Temperatura Precipitação Vento Pressão Humidade
    00:00 +3°C° 0 mm 1 m/s 751 mmHg 63%
    01:00 +2°C° 0 mm 1 m/s 751 mmHg 65%
    02:00 +2°C° 0 mm 1 m/s 751 mmHg 66%
    03:00 +1°C° 0 mm 2 m/s 750 mmHg 66%
    04:00 +1°C° 0 mm 2 m/s 750 mmHg 67%
    05:00 +2°C° 0 mm 2 m/s 750 mmHg 66%
    06:00 +2°C° 0 mm 2 m/s 751 mmHg 65%
    07:00 +3°C° 0 mm 2 m/s 751 mmHg 63%
    08:00 +4°C° 0 mm 3 m/s 751 mmHg 58%
    09:00 +7°C° 0 mm 3 m/s 751 mmHg 54%
    10:00 +8°C° 0 mm 4 m/s 751 mmHg 49%
    11:00 +10°C° 0 mm 4 m/s 750 mmHg 50%
    12:00 +10°C° 0 mm 4 m/s 750 mmHg 52%
    13:00 +11°C° 0 mm 4 m/s 750 mmHg 53%
    14:00 +11°C° 0 mm 4 m/s 750 mmHg 55%
    15:00 +11°C° 0 mm 4 m/s 749 mmHg 58%
    16:00 +11°C° 0 mm 4 m/s 749 mmHg 60%
    17:00 +10°C° 0 mm 3 m/s 749 mmHg 66%
    18:00 +9°C° 0 mm 3 m/s 749 mmHg 73%
    19:00 +8°C° 0 mm 2 m/s 749 mmHg 79%
    20:00 +8°C° 0 mm 2 m/s 749 mmHg 80%
    21:00 +8°C° 0 mm 2 m/s 749 mmHg 81%
    22:00 +9°C° 0 mm 1 m/s 750 mmHg 81%
    23:00 +8°C° 0 mm 1 m/s 750 mmHg 83%

    Depois de amanhã, 22 Março, Sexta-feira

    Tempo Temperatura Precipitação Vento Pressão Humidade
    00:00 +7°C° 0 mm 2 m/s 750 mmHg 85%
    01:00 +7°C° 0 mm 2 m/s 750 mmHg 86%
    02:00 +7°C° 0 mm 2 m/s 750 mmHg 87%
    03:00 +6°C° 0 mm 2 m/s 749 mmHg 88%
    04:00 +6°C° 0 mm 2 m/s 749 mmHg 89%
    05:00 +6°C° 0 mm 2 m/s 749 mmHg 88%
    06:00 +7°C° 0 mm 2 m/s 749 mmHg 87%
    07:00 +7°C° 0 mm 2 m/s 749 mmHg 86%
    08:00 +8°C° 0 mm 3 m/s 749 mmHg 81%
    09:00 +10°C° 0 mm 3 m/s 749 mmHg 77%
    10:00 +12°C° 0 mm 3 m/s 749 mmHg 72%
    11:00 +12°C° 0 mm 3 m/s 749 mmHg 70%
    12:00 +13°C° 0 mm 3 m/s 749 mmHg 68%
    13:00 +14°C° 0 mm 3 m/s 749 mmHg 65%
    14:00 +14°C° 0 mm 3 m/s 748 mmHg 65%
    15:00 +14°C° 0 mm 3 m/s 748 mmHg 64%
    16:00 +15°C° 0 mm 2 m/s 748 mmHg 64%
    17:00 +14°C° 0 mm 2 m/s 748 mmHg 69%
    18:00 +13°C° 0 mm 1 m/s 748 mmHg 74%
    19:00 +11°C° 0 mm 0 m/s 748 mmHg 80%
    20:00 +10°C° 0 mm 0 m/s 748 mmHg 80%
    21:00 +10°C° 0 mm 0 m/s 748 mmHg 81%
    22:00 +10°C° 0 mm 0 m/s 748 mmHg 81%
    23:00 +11°C° 0 mm 1 m/s 748 mmHg 83%

    23 Março, Sábado

    Tempo Temperatura Precipitação Vento Pressão Humidade
    00:00 +10°C° 0 mm 1 m/s 748 mmHg 85%
    01:00 +9°C° 0 mm 1 m/s 748 mmHg 87%
    02:00 +9°C° 0 mm 1 m/s 747 mmHg 88%
    03:00 +9°C° 0 mm 1 m/s 747 mmHg 88%
    04:00 +8°C° 0 mm 1 m/s 747 mmHg 88%
    05:00 +9°C° 0 mm 1 m/s 747 mmHg 86%
    06:00 +9°C° 0 mm 1 m/s 747 mmHg 84%
    07:00 +9°C° 0 mm 2 m/s 747 mmHg 81%
    08:00 +12°C° 0 mm 2 m/s 747 mmHg 73%
    09:00 +14°C° 0 mm 2 m/s 747 mmHg 64%
    10:00 +16°C° 0 mm 3 m/s 746 mmHg 55%
    11:00 +17°C° 0 mm 3 m/s 746 mmHg 52%
    12:00 +18°C° 0 mm 4 m/s 746 mmHg 50%
    13:00 +19°C° 0 mm 4 m/s 745 mmHg 48%
    14:00 +19°C° 0 mm 4 m/s 745 mmHg 48%
    15:00 +18°C° 0 mm 4 m/s 745 mmHg 49%
    16:00 +18°C° 0 mm 4 m/s 744 mmHg 49%
    17:00 +17°C° 0 mm 4 m/s 744 mmHg 55%
    18:00 +14°C° 0 mm 3 m/s 745 mmHg 60%
    19:00 +13°C° 0 mm 2 m/s 745 mmHg 66%
    20:00 +13°C° 0 mm 2 m/s 745 mmHg 69%
    21:00 +12°C° 0 mm 2 m/s 745 mmHg 72%
    22:00 +11°C° 0 mm 1 m/s 745 mmHg 75%
    23:00 +11°C° 0 mm 1 m/s 745 mmHg 78%

    24 Março, Domingo

    Tempo Temperatura Precipitação Vento Pressão Humidade
    00:00 +11°C° 0 mm 1 m/s 745 mmHg 81%
    01:00 +10°C° 0 mm 1 m/s 745 mmHg 84%
    02:00 +10°C° 0 mm 1 m/s 746 mmHg 86%
    03:00 +9°C° 0 mm 2 m/s 746 mmHg 87%
    04:00 +9°C° 0 mm 2 m/s 746 mmHg 89%
    05:00 +9°C° 0.1 mm 2 m/s 746 mmHg 87%
    06:00 +8°C° 0.1 mm 3 m/s 746 mmHg 85%
    07:00 +8°C° 0.1 mm 3 m/s 746 mmHg 82%
    08:00 +8°C° 0 mm 3 m/s 746 mmHg 77%
    09:00 +8°C° 0 mm 2 m/s 746 mmHg 72%
    10:00 +8°C° 0 mm 2 m/s 746 mmHg 66%
    11:00 +9°C° 0 mm 2 m/s 745 mmHg 63%
    12:00 +10°C° 0 mm 2 m/s 745 mmHg 59%
    13:00 +12°C° 0 mm 2 m/s 744 mmHg 56%
    14:00 +13°C° 0 mm 2 m/s 744 mmHg 55%
    15:00 +13°C° 0 mm 2 m/s 743 mmHg 53%
    16:00 +13°C° 0 mm 2 m/s 743 mmHg 52%
    17:00 +12°C° 0 mm 2 m/s 743 mmHg 53%
    18:00 +11°C° 0 mm 1 m/s 743 mmHg 54%
    19:00 +10°C° 0 mm 1 m/s 742 mmHg 55%
    20:00 +9°C° 0 mm 1 m/s 742 mmHg 56%
    21:00 +8°C° 0 mm 1 m/s 742 mmHg 57%
    22:00 +8°C° 0 mm 1 m/s 741 mmHg 58%
    23:00 +8°C° 0 mm 1 m/s 741 mmHg 62%

    25 Março, Segunda-feira

    Tempo Temperatura Precipitação Vento Pressão Humidade
    00:00 +7°C° 0 mm 1 m/s 740 mmHg 66%
    01:00 +7°C° 0 mm 1 m/s 740 mmHg 69%
    02:00 +7°C° 0 mm 1 m/s 739 mmHg 74%
    03:00 +7°C° 0 mm 1 m/s 739 mmHg 79%
    04:00 +7°C° 0 mm 1 m/s 738 mmHg 84%
    05:00 +7°C° 0 mm 1 m/s 738 mmHg 83%
    06:00 +7°C° 0 mm 2 m/s 738 mmHg 83%
    07:00 +8°C° 0 mm 2 m/s 738 mmHg 82%
    08:00 +9°C° 0 mm 3 m/s 737 mmHg 73%
    09:00 +10°C° 0 mm 4 m/s 737 mmHg 64%
    10:00 +10°C° 0 mm 6 m/s 736 mmHg 55%
    11:00 +10°C° 0 mm 6 m/s 736 mmHg 55%
    12:00 +10°C° 0 mm 7 m/s 735 mmHg 56%
    13:00 +10°C° 0 mm 7 m/s 734 mmHg 56%
    14:00 +10°C° 0 mm 8 m/s 734 mmHg 54%
    15:00 +9°C° 0 mm 8 m/s 733 mmHg 52%
    16:00 +9°C° 0 mm 8 m/s 733 mmHg 49%
    17:00 +8°C° 0 mm 7 m/s 733 mmHg 53%
    18:00 +7°C° 0 mm 6 m/s 733 mmHg 57%
    19:00 +5°C° 0 mm 5 m/s 733 mmHg 62%
    20:00 +5°C° 0.2 mm 5 m/s 733 mmHg 62%
    21:00 +3°C° 0.2 mm 6 m/s 734 mmHg 62%
    22:00 +2°C° 0.2 mm 6 m/s 734 mmHg 62%
    23:00 +1°C° 0 mm 6 m/s 734 mmHg 65%
    Mostrar mais